Home   Weather   Danmarkshavn   Past weeks

Flag for Greenland Past Weather in Danmarkshavn, Greenland — Yesterday and Last 2 Weeks

Now
-2 °F

Light snow. Clear.


Feels Like: -28 °F
Forecast: N/A
Wind: 30 mph from Northwest

Location: Danmarkshavn

Current Time: Jan 19, 2017 at 11:53:37 pm

Latest Report: Jan 19, 2017 at 11:00 pm


Visibility: 1 mi

Pressure: 29.50 "Hg

Humidity: 60%

Dew Point: -12 °F

Location of DanmarkshavnLocation

Past Weather in Danmarkshavn — Graph

°F

Danmarkshavn Temperature Yesterday

Maximum temperature yesterday: -8 °F (at 1:00 am)
Minimum temperature yesterday: -14 °F (at 6:00 pm)
Average temperature yesterday: -11 °F

High & Low Weather Summary for the Past Weeks

 TemperatureHumidityPressure
High6 °F (Jan 12, 8:00 am)80% (Jan 12, 7:00 am)30.08 "Hg (Jan 12, 7:00 am)
Low-30 °F (Jan 10, 7:00 am)46% (Jan 5, 3:00 pm)28.44 "Hg (Jan 16, 11:00 am)
Average-12 °F62%29.61 "Hg
* Reported Jan 4 10:00 pm — Jan 19 10:00 pm, Danmarkshavn, Weather by CustomWeather, © 2017

Note: Actual official high and low records may vary slightly from our data, if they occured in-between our weather recording intervals... More about our weather records

Advertising

Danmarkshavn Weather History for the Previous 24 Hours

Scroll right to see more
 ConditionsComfort  
Time TempWeatherWind HumidityBarometerVisibility
10:00 pm
Thu, Jan 19
-1 °FSnow. Clear.38 mph62%29.50 "Hg0 mi
9:00 pm-2 °FSnow. Clear.44 mph69%29.44 "Hg0 mi
8:00 pm-2 °FSnow. Clear.36 mph66%29.44 "Hg0 mi
7:00 pm-5 °FSunny.13 mph59%29.47 "Hg31 mi
6:00 pm-5 °FSunny.15 mph54%29.47 "Hg19 mi
5:00 pm-8 °FSunny.2 mph54%29.47 "Hg31 mi
4:00 pm-5 °FSunny.10 mph50%29.44 "Hg31 mi
3:00 pm-5 °FSunny.14 mph55%29.44 "Hg28 mi
2:00 pm-7 °FSunny.21 mph61%29.44 "Hg5 mi
1:00 pm-6 °FSunny.23 mph57%29.41 "Hg6 mi
12:00 pm-6 °FSunny.21 mph59%29.44 "Hg7 mi
11:00 am-6 °FSunny.20 mph61%29.41 "Hg6 mi
10:00 am-6 °FSunny.13 mph59%29.38 "Hg28 mi
9:00 am-7 °FSunny.13 mph60%29.35 "Hg31 mi
8:00 am-6 °FSunny.20 mph64%29.32 "Hg9 mi
7:00 am-6 °FSunny.8 mph58%29.29 "Hg31 mi
6:00 am-6 °FClear.10 mph58%29.32 "Hg25 mi
5:00 am-7 °FClear.6 mph58%29.29 "Hg31 mi
4:00 am-6 °FLight snow. Clear.23 mph61%29.26 "Hg3 mi
3:00 am-7 °FLight snow. Clear.26 mph64%29.26 "Hg1 mi
2:00 am-8 °FSnow flurries. Clear.24 mph65%29.26 "Hg1 mi
1:00 am-10 °FSnow flurries. Sunny.25 mph64%29.29 "Hg2 mi
12:00 am-9 °FSnow flurries. Clear.21 mph61%29.26 "Hg2 mi
11:00 pm
Wed, Jan 18
-11 °FSnow flurries. Clear.22 mph65%29.26 "Hg4 mi
Weather by CustomWeather, © 2017

See weather overviewHow to use our weather pages